Hourly Weather Al-Kunajtira

Today, 4 December, Friday

Time Temperature Precipitation Wind Pressure Humidity
00:00 +12°C° 0 mm 2 mps 738 mmHg 63%
01:00 +12°C° 0 mm 2 mps 738 mmHg 65%
02:00 +10°C° 0 mm 2 mps 738 mmHg 67%
03:00 +10°C° 0 mm 2 mps 738 mmHg 67%
04:00 +10°C° 0 mm 2 mps 738 mmHg 68%
05:00 +10°C° 0 mm 2 mps 738 mmHg 69%
06:00 +10°C° 0 mm 2 mps 738 mmHg 67%
07:00 +12°C° 0 mm 2 mps 738 mmHg 65%
08:00 +12°C° 0 mm 2 mps 738 mmHg 64%
09:00 +13°C° 0 mm 3 mps 738 mmHg 60%
10:00 +14°C° 0 mm 3 mps 738 mmHg 56%
11:00 +17°C° 0 mm 3 mps 738 mmHg 51%
12:00 +17°C° 0 mm 4 mps 738 mmHg 50%
13:00 +18°C° 0 mm 4 mps 737 mmHg 50%
14:00 +18°C° 0 mm 4 mps 737 mmHg 50%
15:00 +17°C° 0 mm 3 mps 737 mmHg 54%
16:00 +16°C° 0 mm 3 mps 737 mmHg 58%
17:00 +14°C° 0 mm 3 mps 737 mmHg 62%
18:00 +13°C° 0 mm 3 mps 737 mmHg 63%
19:00 +13°C° 0 mm 3 mps 737 mmHg 64%
20:00 +13°C° 0 mm 2 mps 737 mmHg 65%
21:00 +13°C° 0 mm 2 mps 737 mmHg 66%
22:00 +13°C° 0 mm 2 mps 737 mmHg 67%
23:00 +12°C° 0 mm 2 mps 738 mmHg 68%

Tomorrow, 5 December, Saturday

Time Temperature Precipitation Wind Pressure Humidity
00:00 +12°C° 0 mm 2 mps 737 mmHg 69%
01:00 +12°C° 0 mm 2 mps 737 mmHg 70%
02:00 +12°C° 0 mm 2 mps 736 mmHg 71%
03:00 +12°C° 0 mm 2 mps 736 mmHg 71%
04:00 +10°C° 0 mm 2 mps 736 mmHg 71%
05:00 +10°C° 0 mm 2 mps 736 mmHg 72%
06:00 +12°C° 0 mm 2 mps 736 mmHg 70%
07:00 +12°C° 0 mm 2 mps 736 mmHg 69%
08:00 +12°C° 0 mm 2 mps 736 mmHg 67%
09:00 +14°C° 0 mm 2 mps 736 mmHg 63%
10:00 +14°C° 0 mm 3 mps 736 mmHg 58%
11:00 +16°C° 0 mm 3 mps 736 mmHg 54%
12:00 +17°C° 0 mm 3 mps 736 mmHg 53%
13:00 +17°C° 0 mm 3 mps 735 mmHg 51%
14:00 +18°C° 0 mm 3 mps 735 mmHg 50%
15:00 +17°C° 0 mm 2 mps 735 mmHg 54%
16:00 +16°C° 0 mm 2 mps 735 mmHg 57%
17:00 +15°C° 0 mm 2 mps 735 mmHg 61%
18:00 +14°C° 0 mm 1 mps 735 mmHg 63%
19:00 +14°C° 0 mm 1 mps 735 mmHg 64%
20:00 +13°C° 0 mm 1 mps 736 mmHg 66%
21:00 +12°C° 0 mm 0 mps 736 mmHg 67%
22:00 +11°C° 0 mm 0 mps 736 mmHg 68%
23:00 +11°C° 0 mm 0 mps 735 mmHg 69%

Day after tomorrow, 6 December, Sunday

Time Temperature Precipitation Wind Pressure Humidity
00:00 +11°C° 0 mm 0 mps 735 mmHg 69%
01:00 +11°C° 0 mm 0 mps 735 mmHg 70%
02:00 +10°C° 0 mm 0 mps 735 mmHg 71%
03:00 +10°C° 0 mm 0 mps 735 mmHg 72%
04:00 +10°C° 0 mm 0 mps 735 mmHg 73%
05:00 +10°C° 0 mm 0 mps 736 mmHg 73%
06:00 +10°C° 0 mm 0 mps 736 mmHg 71%
07:00 +11°C° 0 mm 0 mps 736 mmHg 69%
08:00 +12°C° 0 mm 0 mps 736 mmHg 66%
09:00 +13°C° 0 mm 0 mps 736 mmHg 62%
10:00 +16°C° 0 mm 1 mps 736 mmHg 57%
11:00 +18°C° 0 mm 1 mps 736 mmHg 52%
12:00 +18°C° 0 mm 1 mps 736 mmHg 50%
13:00 +18°C° 0 mm 2 mps 735 mmHg 47%
14:00 +18°C° 0 mm 2 mps 735 mmHg 45%
15:00 +17°C° 0 mm 2 mps 735 mmHg 51%
16:00 +16°C° 0 mm 1 mps 735 mmHg 56%
17:00 +15°C° 0 mm 1 mps 735 mmHg 62%
18:00 +14°C° 0 mm 1 mps 736 mmHg 65%
19:00 +14°C° 0 mm 1 mps 736 mmHg 69%
20:00 +13°C° 0 mm 1 mps 736 mmHg 72%
21:00 +13°C° 0 mm 1 mps 736 mmHg 74%
22:00 +13°C° 0 mm 1 mps 736 mmHg 76%
23:00 +12°C° 0 mm 1 mps 736 mmHg 78%

7 December, Monday

Time Temperature Precipitation Wind Pressure Humidity
00:00 +12°C° 0 mm 1 mps 736 mmHg 80%
01:00 +12°C° 0 mm 1 mps 736 mmHg 81%
02:00 +11°C° 0 mm 1 mps 736 mmHg 83%
03:00 +10°C° 0 mm 0 mps 736 mmHg 83%
04:00 +10°C° 0 mm 0 mps 736 mmHg 84%
05:00 +10°C° 0 mm 0 mps 737 mmHg 85%
06:00 +11°C° 0 mm 0 mps 737 mmHg 82%
07:00 +11°C° 0 mm 0 mps 737 mmHg 79%
08:00 +12°C° 0 mm 0 mps 737 mmHg 76%
09:00 +13°C° 0 mm 0 mps 737 mmHg 69%
10:00 +15°C° 0 mm 0 mps 737 mmHg 63%
11:00 +18°C° 0 mm 1 mps 737 mmHg 57%
12:00 +18°C° 0 mm 1 mps 737 mmHg 54%
13:00 +19°C° 0 mm 1 mps 737 mmHg 52%
14:00 +19°C° 0 mm 1 mps 737 mmHg 49%
15:00 +18°C° 0 mm 1 mps 737 mmHg 54%
16:00 +16°C° 0 mm 1 mps 737 mmHg 60%
17:00 +15°C° 0 mm 1 mps 737 mmHg 65%
18:00 +15°C° 0 mm 1 mps 737 mmHg 67%
19:00 +14°C° 0 mm 1 mps 737 mmHg 69%
20:00 +14°C° 0 mm 1 mps 738 mmHg 71%
21:00 +13°C° 0 mm 1 mps 738 mmHg 71%
22:00 +12°C° 0 mm 0 mps 738 mmHg 72%
23:00 +12°C° 0 mm 0 mps 738 mmHg 73%

8 December, Tuesday

Time Temperature Precipitation Wind Pressure Humidity
00:00 +13°C° 0 mm 1 mps 738 mmHg 74%
01:00 +12°C° 0 mm 1 mps 737 mmHg 75%
02:00 +12°C° 0 mm 1 mps 737 mmHg 75%
03:00 +12°C° 0 mm 1 mps 737 mmHg 77%
04:00 +11°C° 0 mm 1 mps 737 mmHg 78%
05:00 +11°C° 0 mm 1 mps 737 mmHg 79%
06:00 +12°C° 0 mm 2 mps 737 mmHg 77%
07:00 +12°C° 0 mm 2 mps 738 mmHg 76%
08:00 +13°C° 0 mm 2 mps 738 mmHg 74%
09:00 +14°C° 0 mm 2 mps 738 mmHg 69%
10:00 +14°C° 0 mm 3 mps 738 mmHg 64%
11:00 +17°C° 0 mm 3 mps 738 mmHg 59%
12:00 +17°C° 0 mm 4 mps 738 mmHg 57%
13:00 +18°C° 0 mm 4 mps 737 mmHg 55%
14:00 +19°C° 0 mm 5 mps 737 mmHg 53%
15:00 +17°C° 0 mm 4 mps 737 mmHg 57%
16:00 +15°C° 0 mm 4 mps 737 mmHg 60%
17:00 +14°C° 0 mm 3 mps 737 mmHg 64%
18:00 +14°C° 0 mm 3 mps 737 mmHg 66%
19:00 +13°C° 0 mm 3 mps 736 mmHg 68%
20:00 +13°C° 0 mm 3 mps 736 mmHg 70%
21:00 +13°C° 0.1 mm 3 mps 736 mmHg 70%
22:00 +13°C° 0.1 mm 3 mps 736 mmHg 70%
23:00 +13°C° 0.1 mm 3 mps 736 mmHg 71%

9 December, Wednesday

Time Temperature Precipitation Wind Pressure Humidity
00:00 +12°C° 0.6 mm 3 mps 736 mmHg 73%
01:00 +12°C° 0.6 mm 3 mps 736 mmHg 76%
02:00 +12°C° 0.6 mm 4 mps 736 mmHg 78%
03:00 +11°C° 0.1 mm 3 mps 736 mmHg 78%
04:00 +11°C° 0.1 mm 3 mps 736 mmHg 78%
05:00 +11°C° 0.1 mm 3 mps 736 mmHg 77%
06:00 +11°C° 0 mm 3 mps 737 mmHg 75%
07:00 +11°C° 0 mm 3 mps 737 mmHg 73%
08:00 +11°C° 0 mm 3 mps 738 mmHg 71%
09:00 +12°C° 0 mm 3 mps 738 mmHg 68%
10:00 +13°C° 0 mm 3 mps 738 mmHg 64%
11:00 +13°C° 0 mm 3 mps 738 mmHg 61%
12:00 +14°C° 0 mm 3 mps 738 mmHg 60%
13:00 +14°C° 0 mm 3 mps 738 mmHg 59%
14:00 +14°C° 0 mm 3 mps 737 mmHg 58%
15:00 +13°C° 0 mm 3 mps 737 mmHg 61%
16:00 +14°C° 0 mm 2 mps 738 mmHg 64%
17:00 +13°C° 0 mm 2 mps 738 mmHg 67%
18:00 +12°C° 0 mm 2 mps 738 mmHg 69%
19:00 +12°C° 0 mm 2 mps 738 mmHg 71%
20:00 +12°C° 0 mm 2 mps 739 mmHg 73%
21:00 +11°C° 0 mm 1 mps 739 mmHg 75%
22:00 +11°C° 0 mm 1 mps 739 mmHg 76%
23:00 +11°C° 0 mm 1 mps 739 mmHg 78%
Show more